Weather History for KOTM - December, 2011

Change the Weather History Date:

Thursday, December 29, 2011

  Actual Average Record
Temperature  
Mean Temperature 45 °F 23 °F  
Max Temperature 54 °F 32 °F 67 °F (1984)
Min Temperature 35 °F 14 °F -11 °F (1935)
Degree Days  
Heating Degree Days 20 42  
Month to date heating degree days 946 1124  
Since 1 July heating degree days 2142 2422  
Cooling Degree Days 0 0  
Month to date cooling degree days 0 0  
Year to date cooling degree days 1111 938  
Moisture  
Dew Point 32 °F    
Average Humidity 65    
Maximum Humidity 89    
Minimum Humidity 41    
Precipitation  
Precipitation 0.04 in 0.04 in 0.60 in (1971)
Month to date precipitation 2.49 1.31  
Year to date precipitation 35.08 37.01  
Sea Level Pressure  
Sea Level Pressure 29.64 in    
Wind  
Wind Speed 10 mph (SW)    
Max Wind Speed 20 mph    
Max Gust Speed 25 mph    
Visibility 10 miles    
Events Rain    
T = Trace of Precipitation, MM = Missing Value Source: NWS Daily Summary

Daily Weather History Graph

Daily Weather History Graph

Search for Another Location

Airport or City:

Trip Planner

Search our weather history database for the weather conditions in past years. The results will help you decide how hot, cold, wet, or windy it might be!

Date:

Astronomy

Dec. 29, 2011 Rise Set
Actual Time 7:34 AM CST 4:49 PM CST
Civil Twilight 7:03 AM CST 5:20 PM CST
Nautical Twilight 6:28 AM CST 5:54 PM CST
Astronomical Twilight 5:55 AM CST 6:28 PM CST
Moon 10:25 AM CST 10:29 PM CST
Length of Visible Light 10h 16m
Length of Day
9h 14m
Waxing Crescent, 27% of the Moon is Illuminated
Dec 29
Waxing Crescent
Jan 1
First Quarter
Jan 9
Full
Jan 16
Last Quarter
Jan 23
New

Hourly Weather History & Observations

Time (CST) Temp. Windchill Dew Point Humidity Pressure Visibility Wind Dir Wind Speed Gust Speed Precip Events Conditions
12:53 AM 41.0 °F 33.5 °F 28.0 °F 60% 29.70 in 10.0 mi SSW 13.8 mph - N/A   Overcast
1:53 AM 39.0 °F 31.4 °F 28.0 °F 65% 29.66 in 10.0 mi SSW 12.7 mph - N/A   Clear
2:53 AM 39.0 °F 31.0 °F 28.0 °F 65% 29.64 in 10.0 mi SW 13.8 mph - N/A   Clear
3:53 AM 39.0 °F 31.0 °F 28.0 °F 65% 29.62 in 10.0 mi SW 13.8 mph - N/A   Clear
4:53 AM 37.9 °F 29.6 °F 28.0 °F 68% 29.62 in 10.0 mi WSW 13.8 mph - N/A   Partly Cloudy
5:53 AM 37.0 °F 29.3 °F 28.0 °F 70% 29.64 in 10.0 mi WSW 11.5 mph - N/A   Clear
6:53 AM 36.0 °F 28.0 °F 28.0 °F 73% 29.65 in 10.0 mi WSW 11.5 mph - N/A   Clear
7:53 AM 35.1 °F 27.4 °F 28.0 °F 76% 29.65 in 10.0 mi WSW 10.4 mph - N/A   Clear
8:53 AM 39.0 °F 32.8 °F 28.9 °F 67% 29.67 in 10.0 mi West 9.2 mph - N/A   Clear
9:53 AM 46.0 °F 39.3 °F 30.9 °F 56% 29.68 in 10.0 mi West 16.1 mph - N/A   Clear
10:53 AM 48.2 °F - 30.2 °F 50% 29.66 in 10.0 mi West 16.1 mph 21.9 mph N/A   Clear
11:53 AM 51.1 °F - 32.0 °F 48% 29.65 in 10.0 mi WNW 13.8 mph - N/A   Clear
12:53 PM 53.1 °F - 32.0 °F 45% 29.64 in 10.0 mi WNW 12.7 mph - N/A   Clear
1:53 PM 53.1 °F - 32.0 °F 45% 29.64 in 10.0 mi WNW 8.1 mph - N/A   Clear
2:53 PM 53.1 °F - 30.9 °F 43% 29.65 in 10.0 mi WNW 8.1 mph - N/A   Clear
3:53 PM 51.1 °F - 30.9 °F 46% 29.63 in 10.0 mi NNE 3.5 mph - N/A   Clear
4:53 PM 46.0 °F - 32.0 °F 58% 29.65 in 10.0 mi Calm Calm - N/A   Clear
5:53 PM 43.0 °F 41.3 °F 33.1 °F 68% 29.67 in 10.0 mi SE 3.5 mph - N/A   Partly Cloudy
6:53 PM 44.1 °F - 33.1 °F 65% 29.68 in 10.0 mi Calm Calm - N/A   Overcast
7:53 PM 44.6 °F 43.1 °F 33.8 °F 66% 29.65 in 10.0 mi SSE 3.5 mph - N/A   Overcast
8:53 PM 45.0 °F 41.2 °F 36.0 °F 71% 29.65 in 10.0 mi South 6.9 mph - 0.00 in Rain Light Rain
9:53 PM 43.0 °F 38.8 °F 39.0 °F 86% 29.63 in 10.0 mi SSE 6.9 mph - 0.02 in Rain Light Rain
10:53 PM 42.8 °F 37.5 °F 39.2 °F 87% 29.58 in 10.0 mi SSE 9.2 mph - N/A Rain Light Rain
11:53 PM 43.0 °F 36.4 °F 39.0 °F 86% 29.55 in 10.0 mi SSE 12.7 mph - 0.00 in   Overcast